Regional Weather Roundup
Issued by NWS Midland/Odessa, TX

Skip options and go directly to product.
Home | Oldest Version | Previous Version | Current Version | All | Text Only | Save Text | Print | Product List | Glossary Off

Skip product version selection by date and time.   

807
ASUS44 KMAF 232210
RWRMAF
MIDLAND AREA WEATHER ROUNDUP
NATIONAL WEATHER SERVICE MIDLAND TX
500 PM CDT TUE MAY 23 2017

...IN SOUTHWEST TEXAS AND SOUTHEAST NEW MEXICO...

CITY           SKY/WX    TMP DP  RH WIND       PRES   REMARKS
ALPINE         PTSUNNY   65  47  51 NE13G20   30.17F
ANDREWS        FAIR      66  38  36 N13G22    30.10F
ARTESIA        SUNNY     68  39  34 N8G15     30.10F
BIG SPRING     CLOUDY    63  44  50 N13G18    30.09F
CARLSBAD       MOSUNNY   71  42  35 NW8G22    30.09F
DRYDEN           N/A     74  54  49 N20G29    29.99R
FORT STOCKTON  CLOUDY    65  49  56 NE9       30.09F
GUAD PASS      SUNNY     63  40  42 NE24G30   30.14F
HOBBS          SUNNY     66  30  26 N12G18    30.12F
MARFA          SUNNY     66  46  48 N26       30.10F
MIDLAND AIRPK  MOSUNNY   68  40  36 N14G22    30.09S
MIDLAND INTL   MOSUNNY   69  40  34 N20G26    30.07F
ODESSA         SUNNY     69  39  33 N15       30.09F
PECOS          PTSUNNY   73  43  33 N8        30.07F
PRESIDIO       FAIR      94  32  11 NW3       29.90F
SEMINOLE       SUNNY     65  35  32 N12G24    30.11F
SNYDER         CLOUDY    59  46  61 NW9       30.06F
WINK           MOSUNNY   74  40  29 NE16      30.07F
$$
...OTHER STATIONS IN TEXAS...

CITY           SKY/WX    TMP DP  RH WIND       PRES   REMARKS
ABILENE          N/A    N/A N/A N/A MISG      30.01F
AMARILLO       CLOUDY    64  35  34 N17       30.05F
AUSTIN         PTSUNNY   80  62  54 N21G28    29.81F
BROWNSVILLE    CLOUDY    84  75  74 E6        29.75F
CORPUS CHRISTI PTSUNNY   86  71  60 SE3       29.77F
DALLAS FTW     LGT RAIN  69  57  65 NW20G29   29.86F
DEL RIO        CLOUDY    77  60  55 NW17G30   29.88S
EL PASO        MOSUNNY   85  33  15 SE7       29.95F
HOUSTON INT    MOSUNNY   86  63  45 N7        29.76F
LUBBOCK        MOSUNNY   69  40  34 NW17G24   30.04F
SAN ANGELO     CLOUDY    67  47  48 N21       30.04S
SAN ANTONIO    PTSUNNY   82  61  48 NE7       29.81F
WACO           LGT RAIN  67  62  84 NW24G32   29.88R
WICHITA FALLS  NOT AVBL
$$
...OTHER LOCATIONS IN NEW MEXICO...

CITY           SKY/WX    TMP DP  RH WIND       PRES   REMARKS
ALAMOGORDO     SUNNY     79  37  22 S18G25    30.00F
ALBUQUERQUE    PTSUNNY   77  31  18 W7        30.03F
CANNON AFB     MOSUNNY   65  35  32 NW10      30.11F
CLOVIS         PTSUNNY   64  36  34 N12       30.10F
HOLLOMAN AFB   SUNNY     81  39  22 S14G25    30.02S
ROSWELL        SUNNY     69  31  24 NE6G17    30.10F
RUIDOSO        MOSUNNY   63  34  34 E7        30.18F
SANTA FE       PTSUNNY   68  35  29 S9        30.09F
TRUTH OR CONSE SUNNY     86  30  13 NE13G18   29.98F
TUCUMCARI      PTSUNNY   68  33  27 N13G20    30.06F
$$

  • National Weather Service
  • Southern Region Headquarters
  • 819 Taylor Street, Room 10A06
  • Fort Worth, TX 76102
  • Page Author: NWS Fort Worth
  • Web Master: SR-SRH.Webmaster@noaa.gov
  •  
  • Page last modified: 30-Sep-2016 6:36 PM UTC
USA.gov is the U.S. government's official web portal to all federal, state and local government web resources and services.